Regional Weather Roundup
Issued by NWS Northern Indiana

Home | Current Version | Previous Version | Text Only | Print | Product List | Glossary On
Versions: 1 2 3 4 5 6 7 8 9 10 11 12 13 14 15 16 17 18 19 20 21 22 23 24 25 26 27 28 29 30 31 32 33 34 35 36 37 38 39 40 41 42 43 44 45 46 47 48 49 50
000
ASUS43 KIWX 021510
RWRIWX

KIWX WEATHER ROUNDUP
NATIONAL WEATHER SERVICE NORTHERN INDIANA
1100 AM EDT THU OCT 02 2014

NOTE: "FAIR" INDICATES FEW OR NO CLOUDS BELOW 12,000 FEET WITH NO
SIGNIFICANT WEATHER AND/OR OBSTRUCTIONS TO VISIBILITY.

* THESE STATIONS ARE NOT UNDER NWS QUALITY CONTROL. THEY ALSO MAY NOT
  REPORT WEATHER SUCH AS PRECIPITATION OR FOG.

INZ001>027-021600-
NORTHERN INDIANA

CITY           SKY/WX    TMP DP  RH WIND       PRES   REMARKS
GARY*          CLOUDY    66  63  88 VRB5      29.90S
VALPARAISO     CLOUDY    66  62  87 VRB5      29.91S
MICHIGAN CITY* PTSUNNY   66  59  77 S6        29.92S
LAPORTE*       PTSUNNY   67  64  88 S6        29.92F
KNOX*          FAIR      65  60  82 S6        29.90F
SOUTH BEND     CLOUDY    64  59  82 SE6       29.94R
GOSHEN         CLOUDY    64  57  78 S5        29.95
MONTICELLO*    FAIR      69  65  89 S7        29.89R
LOGANSPORT*    FAIR      68  61  77 S17G23    29.91S
ROCHESTER*     FAIR      68  63  83 S7        29.92R
WARSAW*        DRIZZLE   63  59  88 SW3       29.93S
ANGOLA*        SUNNY     61  54  77 S7        29.96F
FORT WAYNE     LGT RAIN  65  56  72 S9        29.96F
HUNTINGTON*    PTSUNNY   65  57  77 S6        29.94F
PERU/GRISSOM   MOSUNNY   65  65 100 S9        29.92F
MARION*        CLOUDY    64  56  75 S8        29.94F

$$
INZ028>050-021600-
CENTRAL INDIANA

CITY           SKY/WX    TMP DP  RH WIND       PRES   REMARKS
LAFAYETTE      FAIR      69  64  84 S9        29.89S
KOKOMO*        FAIR      64  61  88 S12       29.93F
MUNCIE*        PTSUNNY   68  56  65 S9        29.95F
INDIANAPOLIS   PTSUNNY   63  59  87 SE16      29.94F

$$
MIZ043>046-050>051-056>058-064>065-071>073-077>080-021600-
SOUTHWEST LOWER MICHIGAN

CITY           SKY/WX    TMP DP  RH WIND       PRES   REMARKS
BATTLE CREEK   CLOUDY    62  53  72 S8        29.97R
BENTON HARBOR  LGT RAIN  61  58  90 SE5       29.92R FOG
COLDWATER*     FAIR      63  55  76 SE7       29.96S
HILLSDALE*     FAIR      61  57  84 S6        29.98S
GRAND RAPIDS   CLOUDY    61  57  87 E6        29.94F
KALAMAZOO      CLOUDY    63  54  72 SE7       29.95F
STURGIS*       RAIN      61  55  82 CALM      29.95S
THREE RIVERS*  LGT RAIN  62  55  80 SE5       29.95S

$$
OHZ001>008-015>018-024>025-021600-
NORTHWEST OHIO

CITY           SKY/WX    TMP DP  RH WIND       PRES   REMARKS
WAUSEON*       FAIR      66  57  72 SE9       29.98F
DEFIANCE       FAIR      69  57  65 S10       29.97F
FINDLAY        FAIR      68  57  68 SE10      30.00F
TOLEDO EXPRESS FAIR      63  55  75 SE6       29.99F
TOLEDO METCALF FAIR      66  55  67 SE10      30.01F
LIMA           FAIR      73  58  59 SE12      30.00F

$$
AND FOR LAKE MICHIGAN COASTAL AND OPEN LAKE BUOY OBSERVATIONS

STATION/POSITION TEMP    WIND        PRES    VSBY  WAVE
                 AIR SEA DIR/SP/G                  HT/PER
                 (F)     (DEG/KT/KT) (MB)    (MI)  (FT/S)
CALUMET HARBOR    65     150/  4/  6 1011.2F
MICHIGAN CITY     66     150/  8/ 14   N/A
SAINT JOSEPH      63      CALM  /  3 1013.9S
SOUTH LAKE BUOY   63 62  180/ 16/ 17 1011.7R         3/ 5
4 MI NW BRIDGMAN  63 63  130/  8/  8   N/A           1
MICHIGAN CITY     65 64  190/  4/  6   N/A           1
SAINT JOSEPH CG                      1012.8      6   1

$$
&&


USA.gov is the U.S. government's official web portal to all federal, state and local government web resources and services.